Weather History for Fayetteville, AR

Change the Weather History Date:

Sunday, December 16, 2012

  Actual Average Record
Temperature  
Mean Temperature 53 °F 37 °F  
Max Temperature 66 °F 48 °F 70 °F (2006)
Min Temperature 40 °F 27 °F -1 °F (1989)
Degree Days  
Heating Degree Days 12 28  
Month to date heating degree days 270 419  
Since 1 July heating degree days 1083 1248  
Growing Degree Days 4 (Base 50)    
Moisture  
Dew Point 34 °F    
Average Humidity 56    
Maximum Humidity 82    
Minimum Humidity 29    
Precipitation  
Precipitation 0.00 in 0.10 in 2.88 in (2001)
Month to date precipitation 1.28 1.78  
Year to date precipitation 29.19 47.05  
Sea Level Pressure  
Sea Level Pressure 29.70 in    
Wind  
Wind Speed 5 mph (SW)    
Max Wind Speed 16 mph    
Max Gust Speed 22 mph    
Visibility 10 miles    
Events      
T = Trace of Precipitation, MM = Missing Value Source: NWS Daily Summary

Daily Weather History Graph

Daily Weather History Graph

Search for Another Location

Airport:

Trip Planner

Search our weather history database for the weather conditions in past years. The results will help you decide how hot, cold, wet, or windy it might be!

Date:

Astronomy

Dec. 16, 2012 Rise Set
Actual Time 7:20 AM CST 5:04 PM CST
Civil Twilight 6:52 AM CST 5:32 PM CST
Nautical Twilight 6:20 AM CST 6:04 PM CST
Astronomical Twilight 5:48 AM CST 6:36 PM CST
Moon 10:00 AM CST (12/16) 9:13 PM CST (12/16)
Length of Visible Light 10h 40m
Length of Day
9h 43m
Waxing Crescent, 16% of the Moon is Illuminated
Dec 16
Waxing Crescent
Dec 19
First Quarter
Dec 28
Full
Jan 4
Last Quarter
Jan 11
New

Hourly Weather History & Observations

Time (CST) Temp. Dew Point Humidity Pressure Visibility Wind Dir Wind Speed Gust Speed Precip Events Conditions
12:53 AM 52.0 °F 30.9 °F 45% 29.75 in 10.0 mi SW 8.1 mph - N/A   Clear
1:53 AM 48.9 °F 32.0 °F 52% 29.75 in 10.0 mi SSW 3.5 mph - N/A   Clear
2:53 AM 48.9 °F 32.0 °F 52% 29.74 in 10.0 mi SSW 3.5 mph - N/A   Clear
3:53 AM 50.0 °F 32.0 °F 50% 29.74 in 10.0 mi SSW 5.8 mph - N/A   Clear
4:53 AM 51.1 °F 32.0 °F 48% 29.73 in 10.0 mi SW 6.9 mph - N/A   Clear
5:53 AM 51.1 °F 32.0 °F 48% 29.74 in 10.0 mi SW 5.8 mph - N/A   Clear
6:53 AM 50.0 °F 33.1 °F 52% 29.74 in 10.0 mi SSW 6.9 mph - N/A   Clear
7:53 AM 48.9 °F 33.1 °F 54% 29.74 in 10.0 mi SW 5.8 mph - N/A   Clear
8:53 AM 50.0 °F 33.1 °F 52% 29.75 in 10.0 mi SSW 5.8 mph - N/A   Clear
9:53 AM 52.0 °F 34.0 °F 50% 29.76 in 10.0 mi SW 9.2 mph - N/A   Clear
10:53 AM 57.9 °F 34.0 °F 41% 29.72 in 10.0 mi WSW 12.7 mph 20.7 mph N/A   Clear
11:53 AM 61.0 °F 33.1 °F 35% 29.67 in 10.0 mi WSW 9.2 mph - N/A   Clear
12:53 PM 64.0 °F 35.1 °F 34% 29.63 in 10.0 mi SW 6.9 mph - N/A   Clear
1:53 PM 64.9 °F 33.1 °F 31% 29.62 in 10.0 mi WSW 9.2 mph 21.9 mph N/A   Clear
2:53 PM 66.0 °F 33.1 °F 29% 29.60 in 10.0 mi WSW 9.2 mph - N/A   Clear
3:53 PM 64.4 °F 33.8 °F 32% 29.63 in 10.0 mi WSW 4.6 mph - N/A   Clear
4:53 PM 57.0 °F 36.0 °F 45% 29.65 in 10.0 mi South 6.9 mph - N/A   Clear
5:53 PM 57.0 °F 35.1 °F 44% 29.66 in 10.0 mi South 3.5 mph - N/A   Clear
6:53 PM 44.1 °F 35.1 °F 71% 29.68 in 10.0 mi Calm Calm - N/A   Clear
7:53 PM 46.9 °F 36.0 °F 66% 29.70 in 10.0 mi Calm Calm - N/A   Clear
8:53 PM 44.1 °F 37.0 °F 76% 29.72 in 10.0 mi Calm Calm - N/A   Clear
9:53 PM 43.0 °F 37.0 °F 80% 29.73 in 10.0 mi Calm Calm - N/A   Clear
10:53 PM 42.1 °F 36.0 °F 79% 29.73 in 10.0 mi Calm Calm - N/A   Clear
11:53 PM 41.0 °F 37.4 °F 87% 29.73 in 10.0 mi Calm Calm - N/A   Clear